Home   Weather   A Coruña   Past weeks

Flag for Spain Past Weather in A Coruña, Spain — Yesterday and Last 2 Weeks

Now
64 °F

Mild.


Feels Like: 64 °F
Forecast: 58 / 71 °F
Wind: 5 mph from Northwest

Location: La Coruna

Current Time: May 30, 2017 at 11:10:07 am

Latest Report: May 30, 2017 at 10:00 am


Visibility: 10 mi

Pressure: 30.11 "Hg

Humidity: 89%

Dew Point: 60 °F

Location of A CoruñaLocation

Past Weather in A Coruña — Graph

°F

A Coruña Temperature Yesterday

Maximum temperature yesterday: 66 °F (at 11:00 am)
Minimum temperature yesterday: 60 °F (at 7:00 am)
Average temperature yesterday: 63 °F

High & Low Weather Summary for the Past Weeks

 TemperatureHumidityPressure
High82 °F (May 24, 5:00 pm)100% (May 26, 4:00 am)30.31 "Hg (May 26, 4:00 am)
Low53 °F (May 19, 3:00 am)48% (May 21, 1:00 pm)29.84 "Hg (May 21, 4:00 pm)
Average63 °F80%30.08 "Hg
* Reported May 15 9:00 am — May 30 9:00 am, A Coruña. Weather by CustomWeather, © 2017

Note: Actual official high and low records may vary slightly from our data, if they occured in-between our weather recording intervals... More about our weather records

Advertising

A Coruña Weather History for the Previous 24 Hours

Scroll right to see more
 ConditionsComfort  
Time TempWeatherWind HumidityBarometerVisibility
9:00 am
Tue, May 30
62 °FCool.2 mph94%30.10 "Hg7 mi
8:00 am61 °FCool.1 mph94%30.09 "Hg4 mi
7:00 am61 °FCool.2 mph95%30.08 "Hg6 mi
6:00 am61 °FCool.2 mph94%30.07 "Hg7 mi
5:00 am61 °FOvercast.3 mph93%30.08 "Hg7 mi
4:00 am61 °FCool.3 mph93%30.08 "Hg6 mi
3:00 am61 °FCool.2 mph94%30.09 "Hg8 mi
2:00 am61 °FLow clouds.6 mph94%30.10 "Hg7 mi
1:00 am62 °FCool.6 mph94%30.10 "Hg9 mi
12:00 am62 °FCool.5 mph93%30.10 "Hg11 mi
11:00 pm
Mon, May 29
62 °FOvercast.5 mph93%30.09 "Hg11 mi
10:00 pm62 °FCool.6 mph90%30.06 "Hg12 mi
9:00 pm63 °FMild.7 mph89%30.06 "Hg12 mi
8:00 pm64 °FFog.7 mph89%30.05 "Hg12 mi
7:00 pm64 °FMild.9 mph88%30.05 "Hg12 mi
6:00 pm66 °FMild.9 mph86%30.04 "Hg12 mi
5:00 pm66 °FFog.8 mph82%30.03 "Hg12 mi
4:00 pm66 °FMild.10 mph83%30.03 "Hg12 mi
3:00 pm65 °FDrizzle. Cloudy.6 mph86%30.03 "Hg7 mi
2:00 pm66 °FOvercast.8 mph82%30.02 "Hg11 mi
1:00 pm66 °FDrizzle. Cloudy.3 mph77%30.01 "Hg12 mi
12:00 pm66 °FMild.5 mph80%30.00 "Hg12 mi
11:00 am66 °FPartly sunny.7 mph77%29.99 "Hg12 mi
Weather by CustomWeather, © 2017

See weather overviewHow to use our weather pages